Regional Weather Roundup
Issued by NWS

Home | Current Version | Previous Version | Graphics & Text | Print | Product List | Glossary On
Versions: 1 2 3 4 5 6 7 8 9 10 11 12 13 14 15 16 17 18 19 20 21 22 23 24 25 26 27 28 29 30 31 32 33 34 35 36 37 38 39 40 41 42 43 44 45 46 47 48 49 50
060
ASUS45 KBOI 051610
RWRID

IDAHO REGIONAL WEATHER ROUNDUP
NATIONAL WEATHER SERVICE BOISE ID
900 AM MST FRI FEB 05 2016

NOTE: "FAIR" INDICATES FEW OR NO CLOUDS BELOW 12000 FEET
WITH NO SIGNIFICANT WEATHER AND/OR OBSTRUCTIONS TO VISIBILITY

IDZ012-014-051700-
SOUTHWEST IDAHO


CITY           SKY/WX    TMP DP  RH WIND       PRES   REMARKS
BOISE          FOG       30  30 100 CALM      30.53R VSB<1/4
CALDWELL       FOG       29  28  96 W3        30.57R VSB<1/4
MOUNTAIN HOME  CLEAR     29  29 100 E7        30.54R WCI  22
$$

IDZ016-017-051700-
SOUTHCENTRAL IDAHO


CITY           SKY/WX    TMP DP  RH WIND       PRES   REMARKS
BURLEY         CLOUDY    30  27  88 N6        30.51R WCI  24
JEROME         CLOUDY    27  24  89 NE13      30.52S WCI  16
TWIN FALLS     MOSUNNY   32  26  78 S7        30.52R WCI  26
$$

IDZ019>023-051700-
SOUTHEAST IDAHO


CITY           SKY/WX    TMP DP  RH WIND       PRES   REMARKS
IDAHO FALLS    FOG       15  13  91 N7        30.55R VSB 1   WCI   5
POCATELLO      CLOUDY    19  16  88 NE7       30.56R WCI  10
REXBURG        FOG       17  16  95 CALM      30.52F VSB 1
$$

IDZ006-010-011-018-031-032-051700-
CENTRAL IDAHO MOUNTAINS


CITY           SKY/WX    TMP DP  RH WIND       PRES   REMARKS
MCCALL         CLOUDY    25  23  92 N3        30.47R
HAILEY         MOSUNNY   19  14  79 CALM      30.50R
STANLEY          N/A     14   9  80 CALM      30.47S
SALMON         CLOUDY    16  12  86 S3        30.52S
CHALLIS        PTCLDY     9   7  92 SW5       30.49S WCI   1
$$

IDZ002-004-006-007-026-051700-
NORTHERN IDAHO


CITY           SKY/WX    TMP DP  RH WIND       PRES   REMARKS
LEWISTON       PTCLDY    40  34  79 CALM      30.43F
LOWELL           N/A     34  32  92 N3        30.53F
COEUR D`ALENE  PTCLDY    36  34  93 CALM      30.36S
MULLAN PASS    SNOW      28  24  85 VRB5      30.30F VSB 1/2 WCI  23
$$




USA.gov is the U.S. government's official web portal to all federal, state and local government web resources and services.